EW1587 Weather Reports


time (UTC)temp
C
wind
direction
speed
KPH
gust
KPH
rain 1hr
cm
rain 24hr
cm
rain mn
cm
humidity
%
barometer
mb
20260506204103 5 278 9.7 32.2 0.00 0.00 0.00 50 1017.5
20260506203600 5 307 17.7 32.2 0.00 0.00 0.00 50 1017.5
20260506203100 5 333 8.0 16.1 0.00 0.00 0.00 52 1017.5
20260506202559 5 248 6.4 24.1 0.00 0.00 0.00 51 1017.5
20260506202100 5 284 11.3 27.4 0.00 0.00 0.00 50 1017.6
20260506201559 6 283 14.5 27.4 0.00 0.00 0.00 51 1017.5
20260506201058 6 332 1.6 20.9 0.00 0.00 0.00 51 1017.5
20260506200558 5 332 6.4 30.6 0.00 0.00 0.00 52 1017.6
20260506200058 5 269 20.9 30.6 0.00 0.00 0.00 50 1017.6
20260506195558 6 315 8.0 22.5 0.00 0.00 0.00 49 1017.6
20260506195102 6 360 6.4 22.5 0.00 0.00 0.00 51 1017.7
20260506194601 6 262 3.2 22.5 0.00 0.00 0.00 53 1017.6
20260506194056 5 336 4.8 25.7 0.00 0.00 0.00 52 1017.6
20260506193554 5 277 11.3 22.5 0.00 0.00 0.00 52 1017.4
20260506193054 5 347 9.7 19.3 0.00 0.00 0.00 52 1017.8
20260506192553 5 15 6.4 24.1 0.00 0.00 0.00 54 1017.7
20260506192054 5 273 11.3 25.7 0.00 0.00 0.00 54 1017.7
20260506191552 5 260 12.9 30.6 0.00 0.00 0.00 52 1017.7
20260506191051 5 330 12.9 30.6 0.00 0.00 0.00 53 1017.7
20260506190550 5 318 3.2 22.5 0.00 0.00 0.00 54 1017.8
20260506190051 5 270 12.9 22.5 0.00 0.00 0.00 54 1017.8
20260506185550 4 274 4.8 16.1 0.00 0.00 0.00 53 1017.8
20260506185052 5 320 8.0 16.1 0.00 0.00 0.00 53 1017.8
20260506184553 5 314 8.0 16.1 0.00 0.00 0.00 53 1017.8
20260506184049 4 50 1.6 19.3 0.00 0.00 0.00 55 1017.9
20260506183549 4 294 1.6 20.9 0.00 0.00 0.00 55 1017.9
20260506183055 4 311 12.9 24.1 0.00 0.00 0.00 55 1017.9
20260506182548 4 307 9.7 24.1 0.00 0.00 0.00 55 1018.0
20260506182045 4 6 8.0 22.5 0.00 0.00 0.00 55 1018.0
20260506181611 4 298 9.7 20.9 0.00 0.00 0.00 55 1018.1
20260506181044 3 295 3.2 20.9 0.00 0.00 0.00 58 1018.1
20260506180544 4 312 12.9 20.9 0.00 0.00 0.00 55 1018.1
20260506180044 4 238 9.7 22.5 0.00 0.00 0.00 57 1018.1
20260506175544 3 342 9.7 25.7 0.00 0.00 0.00 56 1018.2
20260506175046 3 298 14.5 25.7 0.00 0.00 0.00 55 1018.1
20260506174543 3 340 6.4 14.5 0.00 0.00 0.00 56 1018.2
20260506174042 3 320 6.4 22.5 0.00 0.00 0.00 56 1018.2
20260506173543 3 290 12.9 22.5 0.00 0.00 0.00 57 1018.2
20260506173055 3 267 9.7 20.9 0.00 0.00 0.00 57 1018.2
20260506172542 3 301 6.4 20.9 0.00 0.00 0.00 58 1018.3
20260506172042 3 290 6.4 20.9 0.00 0.00 0.00 58 1018.3
20260506171540 3 323 8.0 20.9 0.00 0.00 0.00 58 1018.4
20260506171041 3 330 6.4 16.1 0.00 0.00 0.00 57 1018.4
20260506170540 3 311 6.4 19.3 0.00 0.00 0.00 57 1018.5
20260506170040 3 290 8.0 19.3 0.00 0.00 0.00 57 1018.5
20260506165537 3 9 3.2 12.9 0.00 0.00 0.00 58 1018.5
20260506165037 3 27 4.8 16.1 0.00 0.00 0.00 58 1018.5
20260506164539 3 328 6.4 16.1 0.00 0.00 0.00 58 1018.5
20260506164037 3 8 6.4 19.3 0.00 0.00 0.00 57 1018.6
20260506163537 3 285 6.4 22.5 0.00 0.00 0.00 58 1018.5
20260506163038 3 335 8.0 22.5 0.00 0.00 0.00 57 1018.6
20260506162534 3 44 4.8 16.1 0.00 0.00 0.00 57 1018.6
20260506162034 3 329 4.8 16.1 0.00 0.00 0.00 59 1018.6
20260506161532 3 255 6.4 19.3 0.00 0.00 0.00 58 1018.5
20260506161032 3 328 6.4 19.3 0.00 0.00 0.00 58 1018.5
20260506160532 3 278 6.4 16.1 0.00 0.00 0.00 59 1018.6
20260506160032 3 340 8.0 16.1 0.00 0.00 0.00 58 1018.6
20260506155532 3 63 4.8 14.5 0.00 0.00 0.00 58 1018.5
20260506155030 3 314 1.6 9.7 0.00 0.00 0.00 59 1018.6
20260506154529 3 8 3.2 17.7 0.00 0.00 0.00 59 1018.5
20260506154028 2 18 6.4 17.7 0.00 0.00 0.00 59 1018.5
20260506153527 2 16 4.8 16.1 0.00 0.00 0.00 60 1018.5
20260506153025 2 357 4.8 17.7 0.00 0.00 0.00 61 1018.5
20260506152526 2 325 8.0 17.7 0.00 0.00 0.00 60 1018.5
20260506152024 2 353 4.8 24.1 0.00 0.00 0.00 61 1018.5
20260506151524 2 321 9.7 24.1 0.00 0.00 0.00 60 1018.5
20260506151023 2 340 6.4 17.7 0.00 0.00 0.00 60 1018.4
20260506150523 2 311 4.8 17.7 0.00 0.00 0.00 61 1018.4
20260506150022 2 341 8.0 17.7 0.00 0.00 0.00 61 1018.5
20260506145521 2 311 4.8 12.9 0.00 0.00 0.00 62 1018.5
20260506145021 2 29 6.4 14.5 0.00 0.00 0.00 61 1018.4
20260506144522 2 330 4.8 14.5 0.00 0.00 0.00 62 1018.4
20260506144021 2 303 4.8 14.5 0.00 0.00 0.00 62 1018.5
20260506143520 2 26 0.0 14.5 0.00 0.00 0.00 63 1018.5
20260506143022 2 349 4.8 14.5 0.00 0.00 0.00 61 1018.5
20260506142519 2 352 3.2 17.7 0.00 0.00 0.00 62 1018.5
20260506142020 2 347 6.4 12.9 0.00 0.00 0.00 61 1018.5
20260506141519 2 47 1.6 12.9 0.00 0.00 0.00 63 1018.4
20260506141019 1 16 1.6 19.3 0.00 0.00 0.00 62 1018.5
20260506140518 1 41 6.4 19.3 0.00 0.00 0.00 62 1018.5
20260506140018 1 307 3.2 12.9 0.00 0.00 0.00 63 1018.4
20260506135516 1 339 4.8 12.9 0.00 0.00 0.00 62 1018.4
20260506135015 2 352 6.4 12.9 0.00 0.00 0.00 62 1018.3
20260506134514 2 20 1.6 11.3 0.00 0.00 0.00 63 1018.3
20260506134019 1 18 3.2 11.3 0.00 0.00 0.00 63 1018.3
20260506133513 1 57 1.6 11.3 0.00 0.00 0.00 63 1018.2
20260506133012 1 345 4.8 9.7 0.00 0.00 0.00 63 1018.2
20260506132513 1 15 4.8 9.7 0.00 0.00 0.00 64 1018.0
20260506132010 1 318 3.2 9.7 0.00 0.00 0.00 64 1018.0
20260506131509 1 335 4.8 9.7 0.00 0.00 0.00 64 1017.9
20260506131008 1 328 4.8 9.7 0.00 0.00 0.00 64 1017.9
20260506130507 1 6 1.6 12.9 0.00 0.00 0.00 66 1017.8
20260506130000 1 360 4.8 14.5 0.00 0.00 0.00 65 1017.7
20260506125559 1 340 6.4 14.5 0.00 0.00 0.00 65 1017.7
20260506125059 1 297 3.2 11.3 0.00 0.00 0.00 66 1017.6
20260506124601 1 341 3.2 12.9 0.00 0.00 0.00 66 1017.6
20260506124057 1 320 6.4 12.9 0.00 0.00 0.00 67 1017.4
20260506123558 1 329 1.6 12.9 0.00 0.00 0.00 68 1017.4
20260506122507 1 302 0.0 12.9 0.00 0.00 0.00 69 1017.4
20260506122044 1 4 1.6 12.9 0.00 0.00 0.00 69 1017.3
20260506121534 1 6 0.0 9.7 0.00 0.00 0.00 70 1017.2
20260506121039 1 9 1.6 9.7 0.00 0.00 0.00 70 1017.2
20260506120535 1 321 3.2 9.7 0.00 0.00 0.00 70 1017.2
20260506120039 0 352 1.6 9.7 0.00 0.00 0.00 71 1017.1
20260506115534 0 11 1.6 9.7 0.00 0.00 0.00 71 1017.0
20260506115030 0 341 1.6 6.4 0.00 0.00 0.00 72 1017.0
20260506114531 0 353 0.0 3.2 0.00 0.00 0.00 73 1017.0
20260506114030 0 320 0.0 6.4 0.00 0.00 0.00 73 1016.9
20260506113530 0 339 1.6 6.4 0.00 0.00 0.00 74 1016.9
20260506113038 0 349 0.0 4.8 0.00 0.00 0.00 74 1016.8
20260506112531 0 356 1.6 4.8 0.00 0.00 0.00 74 1016.7
20260506112033 0 315 0.0 6.4 0.00 0.00 0.00 75 1016.7
20260506111531 0 354 0.0 6.4 0.00 0.00 0.00 75 1016.6
20260506111029 0 8 1.6 4.8 0.00 0.00 0.00 75 1016.7
20260506110531 0 32 0.0 3.2 0.00 0.00 0.00 75 1016.8
20260506110029 0 354 0.0 4.8 0.00 0.00 0.00 75 1016.8
20260506105528 0 339 0.0 4.8 0.00 0.00 0.00 75 1016.8
20260506105030 0 353 0.0 6.4 0.00 0.00 0.00 76 1016.8
20260506104533 0 298 1.6 6.4 0.00 0.00 0.00 76 1016.8
20260506104026 0 283 0.0 8.0 0.00 0.00 0.00 76 1016.8
20260506103527 0 354 1.6 8.0 0.00 0.00 0.00 77 1016.7
20260506103127 0 349 0.0 6.4 0.00 0.00 0.00 77 1016.7
20260506102525 0 311 0.0 9.7 0.00 0.00 0.00 77 1016.7
20260506102025 0 305 1.6 9.7 0.00 0.00 0.00 77 1016.6
20260506101525 0 290 0.0 6.4 0.00 0.00 0.00 77 1016.6
20260506101023 0 301 1.6 8.0 0.00 0.00 0.00 77 1016.4
20260506100523 0 315 0.0 8.0 0.00 0.00 0.00 77 1016.5
20260506100022 0 340 0.0 4.8 0.00 0.00 0.00 77 1016.3
20260506095521 0 322 0.0 6.4 0.00 0.00 0.00 77 1016.4
20260506095021 0 311 0.0 6.4 0.00 0.00 0.00 78 1016.3
20260506094521 0 321 0.0 6.4 0.00 0.00 0.00 77 1016.3
20260506094020 0 317 0.0 6.4 0.00 0.00 0.00 78 1016.3
20260506093520 0 332 0.0 4.8 0.00 0.00 0.00 78 1016.3
20260506093020 0 338 0.0 4.8 0.00 0.00 0.00 78 1016.3
20260506092520 0 288 0.0 4.8 0.00 0.00 0.00 78 1016.3
20260506092020 0 312 0.0 4.8 0.00 0.00 0.00 78 1016.3
20260506091520 0 314 0.0 6.4 0.00 0.00 0.00 78 1016.4
20260506091019 0 307 1.6 4.8 0.00 0.00 0.00 78 1016.3
20260506090518 0 271 1.6 4.8 0.00 0.00 0.00 78 1016.3
20260506090022 0 305 1.6 4.8 0.00 0.00 0.00 78 1016.2
20260506085516 0 307 0.0 3.2 0.00 0.00 0.00 78 1016.2
20260506085016 0 295 0.0 3.2 0.00 0.00 0.00 78 1016.0
20260506084515 0 302 0.0 3.2 0.00 0.00 0.00 78 1016.0
20260506084015 0 309 0.0 1.6 0.00 0.00 0.00 78 1015.9
20260506083515 0 315 0.0 1.6 0.00 0.00 0.00 78 1015.8
20260506083014 0 301 0.0 1.6 0.00 0.00 0.00 77 1015.8
20260506082512 0 301 0.0 1.6 0.00 0.00 0.00 77 1015.8
20260506082012 0 305 0.0 3.2 0.00 0.00 0.00 76 1015.8
20260506081512 0 302 0.0 3.2 0.00 0.00 0.00 76 1015.8
20260506081015 0 291 0.0 4.8 0.00 0.00 0.00 77 1015.8
20260506080511 0 288 3.2 4.8 0.00 0.00 0.00 77 1015.9
20260506073505 0 299 1.6 4.8 0.00 0.00 0.00 75 1015.7
20260506073005 0 293 1.6 3.2 0.00 0.00 0.00 76 1015.6
20260506072504 0 280 1.6 3.2 0.00 0.00 0.00 74 1015.6
20260506072002 0 299 0.0 1.6 0.00 0.00 0.00 71 1015.6
20260506071502 0 336 0.0 1.6 0.00 0.00 0.00 70 1015.6
20260506071000 0 343 0.0 1.6 0.00 0.00 0.00 69 1015.5
20260506070602 0 349 0.0 1.6 0.00 0.00 0.00 68 1015.6
20260506070104 0 349 0.0 3.2 0.00 0.00 0.00 68 1015.6
20260506062055 0 23 0.0 3.2 0.00 0.00 0.00 65 1015.6
20260506061554 0 22 0.0 3.2 0.00 0.00 0.00 65 1015.5
20260506061054 0 25 0.0 3.2 0.00 0.00 0.00 66 1015.6
20260506060553 0 22 0.0 1.6 0.00 0.00 0.00 66 1015.6
20260506051044 1 51 1.6 4.8 0.00 0.00 0.00 64 1015.3
20260506050544 1 49 1.6 4.8 0.00 0.00 0.00 63 1015.3
20260506045042 1 51 3.2 9.7 0.00 0.00 0.00 62 1015.2
20260506044542 1 71 3.2 9.7 0.00 0.00 0.00 62 1015.2
20260506044141 2 49 1.6 12.9 0.00 0.00 0.00 62 1015.2
20260506043541 1 40 3.2 12.9 0.00 0.00 0.00 62 1015.2
20260506043041 2 41 0.0 3.2 0.00 0.00 0.00 62 1015.2
20260506042541 2 12 0.0 3.2 0.00 0.00 0.00 61 1015.1
20260506042040 2 30 0.0 6.4 0.00 0.00 0.00 61 1015.1
20260506041540 2 12 1.6 6.4 0.00 0.00 0.00 61 1015.1
20260506041039 2 13 1.6 6.4 0.00 0.00 0.00 61 1015.1
20260506040539 2 18 1.6 11.3 0.00 0.00 0.00 61 1015.1
20260506040038 2 18 3.2 11.3 0.00 0.00 0.00 61 1015.0
20260506035537 2 22 0.0 4.8 0.00 0.00 0.00 61 1015.0
20260506035039 2 20 0.0 4.8 0.00 0.00 0.00 60 1014.9
20260506034545 2 16 0.0 8.0 0.00 0.00 0.00 60 1014.9
20260506034035 2 11 0.0 8.0 0.00 0.00 0.00 60 1014.9
20260506033534 2 11 1.6 6.4 0.00 0.00 0.00 60 1014.8
20260506033034 2 360 0.0 6.4 0.00 0.00 0.00 60 1014.7
20260506032537 2 39 1.6 6.4 0.00 0.00 0.00 60 1014.7
20260506032034 2 34 0.0 3.2 0.00 0.00 0.00 60 1014.6
20260506031534 2 15 0.0 3.2 0.00 0.00 0.00 59 1014.6
20260506031034 2 38 0.0 4.8 0.00 0.00 0.00 59 1014.6
20260506030533 2 8 0.0 4.8 0.00 0.00 0.00 58 1014.6
20260506030039 3 44 0.0 4.8 0.00 0.00 0.00 58 1014.6
20260506025532 3 23 0.0 8.0 0.00 0.00 0.00 57 1014.4
20260506025031 3 27 1.6 9.7 0.00 0.00 0.00 56 1014.4
20260506024553 3 25 1.6 11.3 0.00 0.00 0.00 56 1014.5
20260506024031 3 359 4.8 12.9 0.00 0.00 0.00 56 1014.5
20260506023531 3 356 3.2 12.9 0.00 0.00 0.00 56 1014.4
20260506023029 3 335 4.8 14.5 0.00 0.00 0.00 56 1014.3
20260506022528 3 13 1.6 14.5 0.00 0.00 0.00 56 1014.2
20260506022027 3 340 4.8 9.7 0.00 0.00 0.00 56 1014.2
20260506021528 3 358 1.6 12.9 0.00 0.00 0.00 56 1014.1
20260506021028 3 359 4.8 12.9 0.00 0.00 0.00 55 1014.0
20260506020526 4 345 3.2 12.9 0.00 0.00 0.00 55 1013.9
20260506020024 4 18 4.8 17.7 0.00 0.00 0.00 55 1013.9
20260506015524 4 19 6.4 17.7 0.00 0.00 0.00 55 1013.8
20260506015024 4 12 6.4 14.5 0.00 0.00 0.00 54 1013.7
20260506014522 4 352 4.8 14.5 0.00 0.00 0.00 54 1013.7
20260506014023 5 12 4.8 12.9 0.00 0.00 0.00 54 1013.6
20260506013522 5 332 4.8 14.5 0.00 0.00 0.00 53 1013.6
20260506013034 5 8 4.8 14.5 0.00 0.00 0.00 53 1013.5
20260506012522 5 345 6.4 16.1 0.00 0.00 0.00 53 1013.5
20260506012020 5 338 4.8 16.1 0.00 0.00 0.00 52 1013.3
20260506011520 5 345 4.8 20.9 0.00 0.00 0.00 52 1013.3
20260506011020 5 335 8.0 17.7 0.00 0.00 0.00 52 1013.3
20260506010519 5 51 6.4 20.9 0.00 0.00 0.00 51 1013.1
20260506010024 6 333 8.0 20.9 0.00 0.00 0.00 50 1013.0
20260506005517 6 12 6.4 22.5 0.00 0.00 0.00 49 1013.0
20260506005017 6 341 8.0 22.5 0.00 0.00 0.00 48 1013.0
20260506004517 6 330 6.4 19.3 0.00 0.00 0.00 48 1013.0
20260506004017 6 34 8.0 24.1 0.00 0.00 0.00 47 1012.9
20260506003517 6 9 11.3 25.7 0.00 0.00 0.00 46 1012.9
20260506003018 6 360 9.7 25.7 0.00 0.00 0.00 46 1012.8
20260506002515 6 349 4.8 19.3 0.00 0.00 0.00 46 1012.8
20260506002015 7 325 6.4 20.9 0.00 0.00 0.00 46 1012.5
20260506001514 7 342 4.8 20.9 0.00 0.00 0.00 46 1012.5
20260506001014 7 26 4.8 16.1 0.00 0.00 0.00 45 1012.5
20260506000514 7 46 8.0 16.1 0.00 0.00 0.00 45 1012.4
20260506000013 7 27 3.2 17.7 0.00 0.00 0.00 45 1012.4
20260505235512 7 49 4.8 20.9 0.00 0.00 0.00 45 1012.4
20260505235012 7 13 6.4 20.9 0.00 0.00 0.00 44 1012.4
20260505234512 7 323 6.4 27.4 0.00 0.00 0.00 44 1012.3
20260505234013 7 325 9.7 25.7 0.00 0.00 0.00 44 1012.3
20260505233510 7 311 4.8 16.1 0.00 0.00 0.00 45 1012.2
20260505233015 7 12 8.0 25.7 0.00 0.00 0.00 44 1012.2
20260505232508 7 46 12.9 25.7 0.00 0.00 0.00 44 1012.2
20260505232008 7 19 6.4 20.9 0.00 0.00 0.00 44 1012.0
20260505231508 8 342 9.7 19.3 0.00 0.00 0.00 43 1012.0
20260505231013 8 351 12.9 24.1 0.00 0.00 0.00 43 1011.9
20260505230508 8 290 8.0 24.1 0.00 0.00 0.00 44 1011.9
20260505230022 8 14 9.7 24.1 0.00 0.00 0.00 43 1012.0
20260505225507 8 323 11.3 24.1 0.00 0.00 0.00 43 1011.9
20260505225007 8 325 8.0 22.5 0.00 0.00 0.00 43 1011.8
20260505224506 8 340 11.3 27.4 0.00 0.00 0.00 42 1011.9
20260505224011 8 333 9.7 20.9 0.00 0.00 0.00 42 1011.8
20260505223506 8 320 4.8 16.1 0.00 0.00 0.00 43 1011.8
20260505223006 8 309 4.8 17.7 0.00 0.00 0.00 43 1011.8
20260505222506 8 326 6.4 27.4 0.00 0.00 0.00 43 1011.8
20260505222006 8 345 11.3 27.4 0.00 0.00 0.00 42 1011.8
20260505221506 8 339 9.7 24.1 0.00 0.00 0.00 41 1011.7
20260505221005 8 349 6.4 24.1 0.00 0.00 0.00 41 1011.6
20260505220505 8 93 11.3 24.1 0.00 0.00 0.00 41 1011.6
20260505220006 8 314 9.7 25.7 0.00 0.00 0.00 41 1011.6
20260505215505 8 278 14.5 25.7 0.00 0.00 0.00 40 1011.5
20260505215005 8 274 9.7 29.0 0.00 0.00 0.00 41 1011.7
20260505214506 8 328 9.7 29.0 0.00 0.00 0.00 40 1011.7
20260505214006 8 274 11.3 22.5 0.00 0.00 0.00 43 1011.8
20260505213503 8 294 6.4 19.3 0.00 0.00 0.00 43 1011.8
20260505213002 8 300 8.0 19.3 0.00 0.00 0.00 45 1011.8
20260505212504 7 340 9.7 30.6 0.00 0.00 0.00 44 1011.9
20260505212002 8 278 20.9 30.6 0.00 0.00 0.00 42 1011.8
20260505211502 8 303 12.9 30.6 0.00 0.00 0.00 43 1011.9
20260505211002 8 293 16.1 30.6 0.00 0.00 0.00 44 1011.8
20260505210601 8 41 8.0 20.9 0.00 0.00 0.00 42 1011.9
20260505210100 8 328 6.4 14.5 0.00 0.00 0.00 42 1011.9
20260505205559 8 248 3.2 14.5 0.00 0.00 0.00 44 1011.9
20260505205100 7 353 8.0 17.7 0.00 0.00 0.00 43 1011.9
20260505204607 7 20 6.4 25.7 0.00 0.00 0.00 43 1012.0